This is the latest recevied weather packets stored in our database for station/object W0RMT-13. If no packets are shown the sender has not sent any weather packets the latest 10 day(s).
| Time | Temp. | Humidity | Pressure | Rain* | Wind** | Luminosity | Snow |
|---|---|---|---|---|---|---|---|
| 1777713846 | 5.56° C | 51% | 1020.5 hPa | 0 mm | - | 0 W/m² | - |
| 1777713176 | 5.56° C | 51% | 1020.5 hPa | 0 mm | - | 0 W/m² | - |
| 1777712567 | 5° C | 50% | 1020.5 hPa | 0 mm | - | 0 W/m² | - |
| 1777711907 | 5° C | 52% | 1020.5 hPa | 0 mm | - | 0 W/m² | - |
| 1777711263 | 4.44° C | 52% | 1020.5 hPa | 0 mm | - | 0 W/m² | - |
| 1777710611 | 4.44° C | 54% | 1020.5 hPa | 0 mm | - | 0 W/m² | - |
| 1777709936 | 4.44° C | 56% | 1020.5 hPa | 0 mm | - | 0 W/m² | - |
| 1777709329 | 4.44° C | 56% | 1020.5 hPa | 0 mm | - | 0 W/m² | - |
| 1777708650 | 5° C | 56% | 1021 hPa | 0 mm | - | 0 W/m² | - |
| 1777708020 | 5° C | 54% | 1021 hPa | 0 mm | - | 0 W/m² | - |
| 1777707371 | 5° C | 53% | 1021.4 hPa | 0 mm | - | 0 W/m² | - |
| 1777706750 | 5° C | 54% | 1021 hPa | 0 mm | - | 0 W/m² | - |
| 1777706133 | 5.56° C | 54% | 1021.4 hPa | 0 mm | - | 0 W/m² | - |
| 1777705524 | 5.56° C | 53% | 1021.4 hPa | 0 mm | - | 0 W/m² | - |
| 1777704914 | 6.11° C | 51% | 1021.4 hPa | 0 mm | - | 0 W/m² | - |
| 1777704228 | 6.67° C | 52% | 1021.4 hPa | 0 mm | - | 0 W/m² | - |
| 1777703690 | 6.67° C | 49% | 1021.4 hPa | 0 mm | - | 0 W/m² | - |
| 1777703010 | 7.22° C | 48% | 1021.4 hPa | 0 mm | - | 0 W/m² | - |
| 1777702322 | 7.78° C | 46% | 1021.4 hPa | 0 mm | - | 0 W/m² | - |
| 1777701667 | 7.78° C | 45% | 1021 hPa | 0 mm | - | 0 W/m² | - |
| 1777700999 | 7.78° C | 44% | 1021.4 hPa | 0 mm | - | 0 W/m² | - |
| 1777700351 | 8.33° C | 42% | 1021.4 hPa | 0 mm | - | 0 W/m² | - |
| 1777699724 | 8.33° C | 42% | 1021.4 hPa | 0 mm | - | 0 W/m² | - |
| 1777699053 | 8.89° C | 41% | 1021.4 hPa | 0 mm | - | 0 W/m² | - |
| 1777698389 | 8.89° C | 41% | 1021.4 hPa | 0 mm | - | 0 W/m² | - |
* Rain latest hour (hover to see other rain measurements)
** Current wind speed in m/s (hover to see current wind gust speed)